This is the latest recevied weather packets stored in our database for station/object SQ6RR-12. If no packets are shown the sender has not sent any weather packets the latest 10 day(s).
| Time | Temp. | Humidity | Pressure | Rain* | Wind** | Luminosity | Snow |
|---|---|---|---|---|---|---|---|
| 1777778587 | 7.78° C | 95% | 1019.2 hPa | 0 mm | - | - | - |
| 1777778330 | 8.89° C | 94% | 1019.1 hPa | 0 mm | - | - | - |
| 1777778067 | 8.89° C | 96% | 1019.1 hPa | 0 mm | - | - | - |
| 1777777805 | 8.33° C | 97% | 1019.2 hPa | 0 mm | - | - | - |
| 1777777526 | 8.33° C | 97% | 1019.1 hPa | 0 mm | - | - | - |
| 1777777252 | 8.89° C | 90% | 1019.1 hPa | 0 mm | - | - | - |
| 1777776970 | 8.89° C | 91% | 1019.1 hPa | 0 mm | - | - | - |
| 1777776717 | 8.89° C | 93% | 1019.1 hPa | 0 mm | - | - | - |
| 1777776462 | 8.89° C | 91% | 1019.1 hPa | 0 mm | - | - | - |
| 1777776187 | 10° C | 86% | 1019.2 hPa | 0 mm | - | - | - |
| 1777775931 | 10° C | 86% | 1019.2 hPa | 0 mm | - | - | - |
| 1777775656 | 10° C | 86% | 1019.3 hPa | 0 mm | - | - | - |
| 1777775387 | 10.56° C | 86% | 1019.2 hPa | 0 mm | - | - | - |
| 1777775116 | 10° C | 88% | 1019.3 hPa | 0 mm | - | - | - |
| 1777774841 | 10° C | 88% | 1019.3 hPa | 0 mm | - | - | - |
| 1777774571 | 10° C | 89% | 1019.3 hPa | 0 mm | - | - | - |
| 1777774314 | 10° C | 89% | 1019.3 hPa | 0 mm | - | - | - |
| 1777774052 | 10° C | 89% | 1019.3 hPa | 0 mm | - | - | - |
| 1777773807 | 9.44° C | 96% | 1019.3 hPa | 0 mm | - | - | - |
| 1777773547 | 10° C | 95% | 1019.3 hPa | 0 mm | - | - | - |
| 1777773271 | 9.44° C | 96% | 1019.3 hPa | 0 mm | - | - | - |
| 1777772992 | 10° C | 97% | 1019.3 hPa | 0 mm | - | - | - |
| 1777772717 | 9.44° C | 10% | 1019.4 hPa | 0 mm | - | - | - |
| 1777772432 | 8.89° C | 10% | 1019.5 hPa | 0 mm | - | - | - |
| 1777772171 | 8.89° C | 10% | 1019.4 hPa | 0 mm | - | - | - |
* Rain latest hour (hover to see other rain measurements)
** Current wind speed in m/s (hover to see current wind gust speed)